User: anonymous   Login
Location: Vancouver
(49.2500°N, 123.1330°W)
Time: 06:20:13
(UTC-07:00)
Language:

CZ-2C R/B - Orbit

View from above orbital plane
View from above orbital plane
View from above satellite
View from above satellite

Ground track
Ground track

The orbit data is extracted from the following two-line orbital elements,

1 28480U 04046B   14305.05579674  .00000284  00000-0  12350-3 0  4771
2 28480 098.1081 090.6403 0142921 176.6879 299.0777 14.25368176517586
Epoch (UTC): 01 November 2014 01:20:20
Eccentricity: 0.0142921
inclination: 98.1081°
perigee height: 704 km
apogee height: 910 km
right ascension of ascending node: 90.6403°
argument of perigee: 176.6879°
revolutions per day: 14.25368176
mean anomaly at epoch: 299.0777°
orbit number at epoch: 51758

The dashed part of the orbit path shows where the satellite is in the earth's shadow,  

DLR